• In Russia
  • List of Countries
  • For 7 days
  • Water Temperature
  • Weather Map
  • Weather Widgets
  • user-avatar
    Login

    Hourly Weather Klagenfurt

    Today, 20 February, Thursday

    Time Temperature Precipitation Wind Pressure Humidity
    00:00 0°C° 0 mm 1 mps 692 mmHg 75%
    01:00 0°C° 0 mm 1 mps 693 mmHg 72%
    02:00 0°C° 0 mm 1 mps 693 mmHg 72%
    03:00 0°C° 0 mm 1 mps 693 mmHg 71%
    04:00 0°C° 0 mm 1 mps 693 mmHg 70%
    05:00 0°C° 0 mm 1 mps 693 mmHg 69%
    06:00 -1°C° 0 mm 0 mps 693 mmHg 68%
    07:00 -2°C° 0 mm 0 mps 693 mmHg 67%
    08:00 0°C° 0 mm 0 mps 694 mmHg 61%
    09:00 +2°C° 0 mm 0 mps 694 mmHg 54%
    10:00 +3°C° 0 mm 0 mps 695 mmHg 48%
    11:00 +5°C° 0 mm 1 mps 695 mmHg 45%
    12:00 +6°C° 0 mm 1 mps 694 mmHg 42%
    13:00 +7°C° 0 mm 1 mps 694 mmHg 40%
    14:00 +7°C° 0 mm 1 mps 694 mmHg 42%
    15:00 +6°C° 0 mm 1 mps 693 mmHg 44%
    16:00 +6°C° 0 mm 1 mps 693 mmHg 46%
    17:00 +5°C° 0 mm 1 mps 693 mmHg 54%
    18:00 +3°C° 0 mm 1 mps 693 mmHg 62%
    19:00 +2°C° 0 mm 1 mps 692 mmHg 70%
    20:00 +1°C° 0 mm 1 mps 692 mmHg 71%
    21:00 +1°C° 0 mm 1 mps 692 mmHg 73%
    22:00 +1°C° 0 mm 1 mps 692 mmHg 74%
    23:00 +1°C° 0 mm 1 mps 692 mmHg 75%

    Tomorrow, 21 February, Friday

    Time Temperature Precipitation Wind Pressure Humidity
    00:00 0°C° 0 mm 1 mps 692 mmHg 76%
    01:00 0°C° 0 mm 1 mps 692 mmHg 76%
    02:00 0°C° 0 mm 1 mps 692 mmHg 77%
    03:00 0°C° 0 mm 1 mps 691 mmHg 77%
    04:00 0°C° 0 mm 1 mps 691 mmHg 77%
    05:00 0°C° 0 mm 1 mps 692 mmHg 77%
    06:00 -1°C° 0 mm 0 mps 692 mmHg 76%
    07:00 -1°C° 0 mm 0 mps 692 mmHg 76%
    14:00 +9°C° 0 mm 1 mps 696 mmHg 55%
    15:00 +8°C° 0 mm 1 mps 696 mmHg 56%
    16:00 +7°C° 0 mm 1 mps 696 mmHg 59%
    17:00 +6°C° 0 mm 1 mps 696 mmHg 66%
    18:00 +4°C° 0 mm 1 mps 696 mmHg 73%
    19:00 +2°C° 0 mm 1 mps 696 mmHg 79%
    20:00 +2°C° 0 mm 1 mps 696 mmHg 80%
    21:00 +2°C° 0 mm 1 mps 696 mmHg 81%
    22:00 +1°C° 0 mm 1 mps 697 mmHg 82%
    23:00 +1°C° 0 mm 1 mps 697 mmHg 83%

    Day after tomorrow, 22 February, Saturday

    Time Temperature Precipitation Wind Pressure Humidity
    00:00 +1°C° 0 mm 1 mps 697 mmHg 83%
    01:00 0°C° 0 mm 0 mps 697 mmHg 84%
    02:00 0°C° 0 mm 0 mps 697 mmHg 83%
    03:00 0°C° 0 mm 0 mps 697 mmHg 82%
    04:00 -1°C° 0 mm 0 mps 696 mmHg 81%
    05:00 -1°C° 0 mm 0 mps 697 mmHg 80%
    06:00 -1°C° 0 mm 0 mps 697 mmHg 79%
    07:00 -1°C° 0 mm 0 mps 697 mmHg 78%
    08:00 +1°C° 0 mm 0 mps 697 mmHg 70%
    09:00 +2°C° 0 mm 0 mps 697 mmHg 63%
    10:00 +4°C° 0 mm 0 mps 698 mmHg 55%
    11:00 +5°C° 0 mm 0 mps 698 mmHg 52%
    12:00 +8°C° 0 mm 1 mps 698 mmHg 48%
    13:00 +9°C° 0 mm 1 mps 698 mmHg 45%
    14:00 +9°C° 0 mm 1 mps 697 mmHg 48%
    15:00 +9°C° 0 mm 1 mps 697 mmHg 52%
    16:00 +8°C° 0 mm 1 mps 696 mmHg 55%
    17:00 +7°C° 0 mm 1 mps 696 mmHg 61%
    18:00 +5°C° 0 mm 1 mps 696 mmHg 68%
    19:00 +4°C° 0 mm 1 mps 696 mmHg 74%
    20:00 +3°C° 0 mm 1 mps 696 mmHg 74%
    21:00 +3°C° 0 mm 1 mps 696 mmHg 74%
    22:00 +3°C° 0 mm 1 mps 696 mmHg 74%
    23:00 +3°C° 0 mm 1 mps 696 mmHg 75%

    23 February, Sunday

    Time Temperature Precipitation Wind Pressure Humidity
    00:00 +3°C° 0 mm 1 mps 696 mmHg 76%
    01:00 +3°C° 0 mm 1 mps 696 mmHg 77%
    02:00 +2°C° 0 mm 1 mps 695 mmHg 78%
    03:00 +2°C° 0 mm 1 mps 695 mmHg 80%
    04:00 +2°C° 0 mm 1 mps 694 mmHg 81%
    05:00 +2°C° 0 mm 1 mps 694 mmHg 81%
    06:00 +2°C° 0 mm 1 mps 694 mmHg 81%
    07:00 +2°C° 0 mm 1 mps 694 mmHg 81%
    08:00 +4°C° 0 mm 1 mps 695 mmHg 77%
    09:00 +5°C° 0 mm 1 mps 695 mmHg 72%
    10:00 +7°C° 0 mm 1 mps 695 mmHg 68%
    11:00 +8°C° 0 mm 1 mps 695 mmHg 65%
    12:00 +9°C° 0 mm 1 mps 695 mmHg 62%
    13:00 +10°C° 0 mm 1 mps 695 mmHg 60%
    14:00 +9°C° 0 mm 1 mps 694 mmHg 63%
    15:00 +9°C° 0 mm 1 mps 693 mmHg 65%
    16:00 +7°C° 0 mm 2 mps 693 mmHg 68%
    17:00 +6°C° 0 mm 2 mps 692 mmHg 74%
    18:00 +5°C° 0 mm 2 mps 692 mmHg 80%
    19:00 +3°C° 0 mm 2 mps 692 mmHg 86%
    20:00 +3°C° 0 mm 2 mps 691 mmHg 86%
    21:00 +3°C° 0 mm 2 mps 691 mmHg 87%
    22:00 +2°C° 0 mm 2 mps 691 mmHg 87%
    23:00 +2°C° 0 mm 2 mps 691 mmHg 88%

    24 February, Monday

    Time Temperature Precipitation Wind Pressure Humidity
    00:00 +2°C° 0 mm 2 mps 690 mmHg 88%
    01:00 +2°C° 0 mm 2 mps 690 mmHg 88%
    02:00 +3°C° 0 mm 1 mps 690 mmHg 88%
    03:00 +4°C° 0 mm 1 mps 690 mmHg 88%
    04:00 +4°C° 0 mm 1 mps 691 mmHg 88%
    05:00 +4°C° 0 mm 1 mps 691 mmHg 88%
    06:00 +4°C° 0 mm 1 mps 692 mmHg 88%
    07:00 +3°C° 0 mm 0 mps 692 mmHg 88%
    08:00 +4°C° 0 mm 0 mps 693 mmHg 85%
    09:00 +6°C° 0 mm 0 mps 694 mmHg 81%
    10:00 +7°C° 0 mm 0 mps 695 mmHg 78%
    11:00 +8°C° 0 mm 1 mps 695 mmHg 78%
    12:00 +8°C° 0 mm 1 mps 695 mmHg 78%
    13:00 +9°C° 0 mm 1 mps 695 mmHg 79%
    14:00 +8°C° 0 mm 1 mps 695 mmHg 80%
    15:00 +8°C° 0 mm 1 mps 695 mmHg 82%
    16:00 +8°C° 0 mm 1 mps 694 mmHg 84%
    17:00 +7°C° 0 mm 1 mps 694 mmHg 87%
    18:00 +7°C° 0 mm 1 mps 694 mmHg 90%
    19:00 +6°C° 0 mm 1 mps 694 mmHg 93%
    20:00 +6°C° 0 mm 1 mps 693 mmHg 94%
    21:00 +4°C° 0 mm 0 mps 693 mmHg 94%
    22:00 +4°C° 0 mm 0 mps 693 mmHg 94%
    23:00 +4°C° 0 mm 0 mps 692 mmHg 95%

    25 February, Tuesday

    Time Temperature Precipitation Wind Pressure Humidity
    00:00 +4°C° 0 mm 0 mps 692 mmHg 95%
    01:00 +3°C° 0 mm 0 mps 691 mmHg 96%
    02:00 +4°C° 0 mm 1 mps 691 mmHg 95%
    03:00 +4°C° 0 mm 1 mps 691 mmHg 95%
    04:00 +4°C° 0 mm 1 mps 690 mmHg 94%
    05:00 +4°C° 0 mm 1 mps 690 mmHg 94%
    06:00 +4°C° 0 mm 1 mps 690 mmHg 94%
    07:00 +4°C° 0 mm 1 mps 690 mmHg 94%
    08:00 +6°C° 0 mm 1 mps 690 mmHg 90%
    09:00 +7°C° 0 mm 1 mps 690 mmHg 85%
    10:00 +9°C° 0 mm 1 mps 690 mmHg 80%
    11:00 +9°C° 0 mm 1 mps 690 mmHg 78%
    12:00 +9°C° 0 mm 1 mps 690 mmHg 76%
    13:00 +9°C° 0 mm 2 mps 689 mmHg 74%
    14:00 +9°C° 0 mm 2 mps 689 mmHg 75%
    15:00 +8°C° 0 mm 2 mps 688 mmHg 76%
    16:00 +9°C° 0 mm 1 mps 687 mmHg 77%
    17:00 +8°C° 0 mm 1 mps 687 mmHg 81%
    18:00 +7°C° 0 mm 1 mps 687 mmHg 86%
    19:00 +7°C° 0 mm 1 mps 687 mmHg 90%
    20:00 +6°C° 0 mm 1 mps 687 mmHg 91%
    21:00 +6°C° 0 mm 1 mps 686 mmHg 92%
    22:00 +6°C° 0 mm 1 mps 686 mmHg 93%
    23:00 +6°C° 0.1 mm 1 mps 686 mmHg 93%
    Show more